Other Public Products
Issued by NWS Charleston, SC

Current Version | Previous Version | Text Only | Print | Product List | Glossary Off
Versions: 1 2 3 4 5 6 7 8 9 10 11 12 13 14 15 16 17 18 19 20 21 22 23 24 25 26 27 28 29 30 31 32 33 34 35 36 37 38 39 40 41 42 43 44 45 46 47 48 49 50

000
FPUS82 KCHS 161412
OPUCHS

TEST...KCHS/KSAV Gateway Observations...TEST
National Weather Service Charleston SC
1000 AM EDT MON OCT 16 2017

NOTE: "fair" indicates few or no clouds below 12,000 feet with no
significant weather and/or obstructions to visibility.

SCZ050-WAZ558-NCZ071-TXZ119-213-PAZ071-DCZ001-FLZ074-172-MI076-
NYZ176-178-MAZ016-IL014-TNZ027-NJZ106-GAZ044-MD014-161500-

...Gateway Observations for Charleston International...

CITY           SKY/WX    TMP DP  RH WIND       PRES   REMARKS
Chas Airport   MOSUNNY   73  70  90 W6        30.03S
Seattle        PTCLDY    45  43  93 SE9       30.22F
Charlotte      CLOUDY    64  62  93 N10       30.07R
Dallas DFW     SUNNY     56  47  71 N6        30.40R
Dallas Love    SUNNY     56  43  61 N5        30.41R
Philladelphia  CLOUDY    59  46  62 N10       30.03R
Wash National  CLOUDY    62  53  72 N12       30.07S
Baltimore      CLOUDY    59  49  69 NW10      30.06R
Miami          MOSUNNY   84  75  74 CALM      30.00R HX  92
Detroit        PTSUNNY   47  39  74 N5        30.30R
Newark         CLOUDY    56  40  55 NW15      30.00R
Laguardia      CLOUDY    57  43  59 NW16      29.99R
J F K          CLOUDY    57  42  57 NW13      29.99R
Boston Logan   CLOUDY    60  46  59 NW16      29.89R
Ft. Lauderdale PTSUNNY   84  76  76 E5        30.00R HX  93
Chicago O`Hare MOSUNNY   48  40  73 W7        30.31S
Chicago Midway MOSUNNY   48  41  76 W8        30.32R
Houston Bush   MOSUNNY   63  48  58 N12       30.28R
Houston Hobby  MOSUNNY   66  48  52 N13G23    30.27R
Nashville      MOSUNNY   54  44  69 N16       30.33R
Atlanta        CLOUDY    56  52  86 NW16      30.13R

$$

GAZ044-118-TXZ119-213-NCZ071-DCZ001-MDZ014-506-PAZ021-071-NJZ106-
NYZ176-178-MAZ106-OHZ011-021-055-MIZ076-KYZ091-ILZ014-INZ047-
MNZ060-ONZ431-161500-

...Gateway Observations for Savannah International...

CITY           SKY/WX    TMP DP  RH WIND       PRES   REMARKS
Savannah Arpt  PTSUNNY   74  72  93 VRB5      30.04S
Atlanta        CLOUDY    56  52  86 NW16      30.13R
Charlotte      CLOUDY    64  62  93 N10       30.07R
Dallas DFW     SUNNY     56  47  71 N6        30.40R
Houston Bush   MOSUNNY   63  48  58 N12       30.28R
Wash National  CLOUDY    62  53  72 N12       30.07S
Wash Dulles    CLOUDY    59  46  62 N16G25    30.08R
Baltimore      CLOUDY    59  49  69 NW10      30.06R
Philadelphia   CLOUDY    59  46  62 N10       30.03R
Newark         CLOUDY    56  40  55 NW15      30.00R
Laguardia      CLOUDY    57  43  59 NW16      29.99R
J F K          CLOUDY    57  42  57 NW13      29.99R
Boston         CLOUDY    60  46  59 NW16      29.89R
Pittsburg      PTSUNNY   50  44  80 N12       30.21R
Akron          SUNNY     51  40  65 N14G30    30.24R
Cleveland      MOSUNNY   52  39  61 NW10      30.28R
Cincinnati     PTSUNNY   51  48  89 N8        30.32R
Columbus       SUNNY     49  42  78 N9        30.29R
Detroit        PTSUNNY   47  39  74 N5        30.30R
Chicago O`Hare MOSUNNY   48  40  73 W7        30.31S
Minneapolis    MOSUNNY   42  37  82 SW6       30.23S
Indianapolis   SUNNY     50  41  71 NW9       30.35R
Toronto Canada MOSUNNY   43  34  70 N10       30.21R

$$




USA.gov is the U.S. government's official web portal to all federal, state and local government web resources and services.